Skip Page Navigation
NASA JPL Caltech
NASA Logo - Jet Propulsion Laboratory + View the NASA Portal
+ Near-Earth Object (NEO) Program
Search JPL
JPL Home Earth Solar System Stars & Galaxies Technology
JPL Solar System Dynamics
BODIES ORBITS EPHEMERIDES TOOLS PHYSICAL DATA DISCOVERY FAQ SITE MAP
JPL Small-Body Database Browser
Search: [ help ]  
44479 Olaheszter (1998 WS8)
Classification: Main-belt Asteroid          SPK-ID: 2044479
Ephemeris | Orbit Diagram | Orbital Elements | Physical Parameters | Discovery Circumstances ]

[ show orbit diagram ]
Orbital Elements at Epoch 2456400.5 (2013-Apr-18.0) TDB
Reference: MPO250629 (heliocentric ecliptic J2000)
 Element Value Uncertainty (1-sigma)   Units 
e 0.0278009 n/a  
a 2.8858051 n/a AU
q 2.8055771 n/a AU
i 12.09815 n/a deg
node 276.61342 n/a deg
peri 60.73521 n/a deg
M 59.89876 n/a deg
tp 2456102.5699899
(2012-Jun-24.06998990)
n/a JED
period 1790.6014018
4.90
n/a
n/a
d
yr
n 0.20104977 n/a deg/d
Q 2.9660331 n/a AU
  Orbit Determination Parameters
   # obs. used (total)      279  
   first obs. used      1998-??-??  
   last obs. used      2013-01-05  
   # oppositions      11  
   planetary ephem.      DE403  
   condition code      0  
   fit RMS      0.57  
   data source      MPC:mpn  
   producer      MPCLINUX  

Additional Information
 T_jup = 3.259 

Ephemeris | Orbit Diagram | Orbital Elements | Physical Parameters | Discovery Circumstances ]

Physical Parameter Table
Parameter Symbol Value Units Sigma Reference Notes
absolute magnitude H 14.3 mag n/a MPO250629  

44479 Oláheszter           Discovered 1998 Nov. 24 by L. Kiss and K. Sárneczky at Piszkesteto.
Eszter (née Oláh) Kiss (1945-2004) was the beloved mother of the first discoverer.
NOTE: some special characters may not display properly (any characters within {} are an attempt to place the proper accent above a character)
Reference: 20041126/MPCPages.arcLast Updated: 2004-12-06

Alternate Designations
 1998 WS8 = 2000 AE45 
Ephemeris | Orbit Diagram | Orbital Elements | Physical Parameters | Discovery Circumstances ]
ABOUT SSD CREDITS/AWARDS PRIVACY/COPYRIGHT GLOSSARY LINKS
FirstGov 2013-May-18 19:31 UT
(server date/time)  
NASA Home Page
Site Manager:   Donald K. Yeomans
Webmaster  Alan B. Chamberlin